DateTimeUTC,F1_A11,F1_S11,BsB_S11,BsG_S11,BsR_S11,BbsB_S11,BbsG_S11,BbsR_S11,BaB_A11,BaG_A11,BaR_A11,Tu_S11,T_S11,Uu_S11,U_S11,P_S11,T1_A11
2021-03-18T15:00:00Z,00040200,20000000,,,,,,,-000.07,-000.42,0000.19,18.0,24.8,05.3,03.5,0647.1,31.0
2021-03-18T15:01:00Z,00040200,20000000,,,,,,,0000.20,0000.64,0000.06,18.0,24.8,05.3,03.5,0647.1,31.0
2021-03-18T15:02:00Z,00040200,20000000,,,,,,,0000.06,-000.15,-000.11,18.0,24.8,05.3,03.5,0647.1,31.0
2021-03-18T15:03:00Z,00040200,60000000,,,,,,,0000.26,0000.62,0000.31,18.0,24.8,05.3,03.5,0647.1,31.0
2021-03-18T15:04:00Z,00040200,40000000,0000.85,0000.12,0000.36,0000.15,0000.09,0000.12,-000.27,-000.85,-000.61,18.1,24.7,05.4,03.6,0648.0,31.0
2021-03-18T15:05:00Z,00040200,00000000,0000.25,0000.38,0000.15,0000.40,-000.05,-000.11,-000.87,-000.39,-000.45,18.1,24.7,05.4,03.6,0648.0,31.0
2021-03-18T15:06:00Z,00040200,00000000,0000.54,0000.27,0000.21,0000.40,-000.16,0000.16,0001.31,0000.60,0000.68,18.1,24.7,05.4,03.6,0648.0,31.0
2021-03-18T15:07:00Z,00040200,00000000,-000.14,0000.15,0000.25,0000.30,-000.05,0000.30,0000.53,0001.47,0001.11,18.1,24.7,05.6,03.8,0648.0,31.0
2021-03-18T15:08:00Z,00040200,00000000,0000.24,0000.17,0000.21,-000.17,-000.12,0000.01,0000.45,-000.35,0000.13,18.2,24.7,05.9,03.9,0648.0,31.0
2021-03-18T15:09:00Z,00040200,00000000,0000.67,0000.08,0000.12,0000.33,0000.10,0000.34,0000.83,0000.76,0000.52,18.1,24.7,05.9,03.9,0647.9,31.0
2021-03-18T15:10:00Z,00040200,00000000,0000.53,0000.22,0000.28,0000.14,0000.21,0000.05,0000.01,0000.52,-000.00,18.1,24.7,06.0,04.0,0648.1,31.0
2021-03-18T15:11:00Z,00040200,00000000,0000.86,-000.03,0000.31,0000.32,0000.03,0000.09,0000.63,0000.81,0000.77,18.1,24.7,06.1,04.1,0648.1,30.9
2021-03-18T15:12:00Z,00040200,00000000,0000.60,0000.26,0000.25,0000.34,-000.16,0000.09,-000.06,-000.75,-000.37,18.1,24.7,06.1,04.1,0648.1,31.0
2021-03-18T15:13:00Z,00040200,00000000,0000.29,0000.21,0000.34,0000.36,0000.18,0000.21,0000.24,0000.36,0000.09,18.1,24.7,06.2,04.1,0648.1,31.0
2021-03-18T15:14:00Z,00040200,00000000,0000.10,0000.09,0000.17,0000.15,0000.19,-000.12,-000.32,-000.33,-000.21,18.1,24.7,06.1,04.1,0648.1,31.0
2021-03-18T15:15:00Z,00040200,00000000,0000.72,0000.35,0000.27,-000.02,0000.04,0000.28,-000.66,-000.65,-000.69,18.1,24.7,06.0,04.0,0648.2,30.9
2021-03-18T15:16:00Z,00040200,00000000,0000.43,0000.10,0000.14,0000.61,-000.06,0000.00,0000.66,0001.06,0000.86,18.1,24.7,05.8,03.8,0648.1,30.9
2021-03-18T15:17:00Z,00040200,00000000,0000.38,0000.28,0000.46,0000.25,-000.16,0000.29,-000.78,-001.25,-000.77,18.1,24.7,05.7,03.8,0648.2,30.9
2021-03-18T15:18:00Z,00040200,00000000,0000.18,0000.16,0000.50,-000.08,0000.19,0000.14,0000.13,0000.37,0000.24,18.0,24.7,05.5,03.7,0648.1,30.9
2021-03-18T15:19:00Z,00040200,00000000,-000.10,0000.12,0000.45,0000.18,-000.10,0000.23,-000.85,-000.71,-000.70,18.1,24.7,05.4,03.6,0648.2,31.0
2021-03-18T15:20:00Z,00040200,00000000,0000.19,-000.04,0000.10,0000.21,0000.07,-000.02,0000.07,0000.00,-000.21,18.1,24.7,05.2,03.4,0648.0,31.0
2021-03-18T15:21:00Z,00040200,00000000,-000.10,0000.11,0000.27,0000.56,0000.00,-000.01,0001.05,0001.06,0000.99,18.1,24.7,05.4,03.6,0648.1,31.0
2021-03-18T15:22:00Z,00040200,00000000,0000.86,0000.25,0000.52,0000.40,-000.01,0000.09,0000.17,-000.22,0000.04,18.1,24.7,05.6,03.7,0648.0,31.0
2021-03-18T15:23:00Z,00040200,00000000,0000.64,0000.24,0000.21,0000.37,0000.06,0000.09,-000.14,-000.14,0000.02,18.1,24.7,05.6,03.8,0648.1,31.0
2021-03-18T15:24:00Z,00040200,00000000,0000.44,0000.07,0000.38,0000.44,0000.00,0000.11,0000.45,0000.44,0000.41,18.1,24.7,05.8,03.9,0648.1,31.0
2021-03-18T15:25:00Z,00040200,00000000,0000.47,0000.16,0000.52,0000.70,-000.07,-000.02,0000.81,0000.95,0000.39,18.1,24.7,05.9,03.9,0647.9,31.0
2021-03-18T15:26:00Z,00040200,00000000,0000.72,0000.30,0000.03,0000.20,-000.07,0000.14,-000.02,0000.36,0000.03,18.1,24.7,06.0,04.0,0647.8,31.0
2021-03-18T15:27:00Z,00040200,00000000,0000.48,0000.10,0000.57,0000.18,0000.01,0000.28,-000.10,-000.37,0000.23,18.1,24.7,06.0,04.0,0648.0,31.0
2021-03-18T15:28:00Z,00040200,00000000,0000.07,0000.25,0000.19,0000.19,0000.20,0000.05,-000.18,-000.32,-000.33,18.1,24.7,05.9,03.9,0648.0,31.0
2021-03-18T15:29:00Z,00040200,00000000,-000.13,0000.01,0000.13,0000.71,-000.17,0000.30,0000.17,0000.33,0000.10,18.1,24.7,05.6,03.8,0647.9,31.0
2021-03-18T15:30:00Z,00040200,00000000,0000.18,0000.19,0000.16,0000.43,-000.07,0000.04,0000.99,0000.62,0000.79,18.1,24.7,05.7,03.8,0647.9,31.0
2021-03-18T15:31:00Z,00040200,00000000,0000.41,0000.07,0000.18,0000.13,-000.04,0000.43,0000.59,0001.01,0000.38,18.1,24.7,06.0,04.0,0647.9,31.0
2021-03-18T15:32:00Z,00040200,00000000,-000.04,0000.20,0000.23,0000.41,0000.02,-000.10,-000.40,-000.54,-000.13,18.1,24.7,05.9,04.0,0648.0,31.0
2021-03-18T15:33:00Z,00040200,00000000,0000.26,-000.08,0000.10,0000.32,0000.25,-000.11,0000.79,0000.65,0000.42,18.1,24.7,05.9,04.0,0647.9,31.0
2021-03-18T15:34:00Z,00040200,00000000,0000.26,0000.38,0000.22,0000.42,0000.16,0000.04,-000.35,-000.02,-000.10,18.1,24.7,05.9,03.9,0648.1,31.0
2021-03-18T15:35:00Z,00040200,00000000,0000.39,-000.05,0000.34,0000.42,0000.01,0000.11,-000.72,-000.59,-000.41,18.1,24.7,05.7,03.8,0648.1,31.0
2021-03-18T15:36:00Z,00040200,00000000,0000.47,-000.00,0000.16,0000.13,-000.01,0000.17,-001.54,-001.84,-001.18,18.1,24.7,05.2,03.5,0648.1,31.0
2021-03-18T15:37:00Z,00040200,00000000,0000.20,0000.06,0000.25,0000.77,-000.09,0000.24,0000.06,0000.22,-000.09,18.1,24.7,04.9,03.3,0648.2,31.0
2021-03-18T15:38:00Z,00040200,00000000,0000.53,0000.15,0000.36,-000.11,0000.10,0000.38,0001.30,0001.00,0001.02,18.2,24.7,05.1,03.4,0648.2,31.0
2021-03-18T15:39:00Z,00040200,00000000,0000.03,0000.05,0000.29,0000.47,0000.11,0000.04,-000.29,-000.45,-000.75,18.2,24.8,05.2,03.5,0648.1,31.0
2021-03-18T15:40:00Z,00040200,00000000,-000.08,0000.01,0000.14,0000.21,-000.02,-000.10,-000.45,-000.13,0000.29,18.2,24.7,05.0,03.3,0648.1,31.0
2021-03-18T15:41:00Z,00040200,00000000,0000.50,-000.01,0000.43,0000.33,0000.09,0000.26,0000.70,0000.82,0000.90,18.2,24.7,05.2,03.4,0648.1,31.0
2021-03-18T15:42:00Z,00040200,00000000,0000.27,0000.11,0000.23,0000.08,-000.04,0000.10,-000.47,-000.59,-000.69,18.2,24.7,05.1,03.4,0648.1,31.0
2021-03-18T15:43:00Z,00040200,00000000,0000.19,0000.14,0000.30,0000.44,0000.06,0000.10,-000.29,0000.02,0000.06,18.2,24.8,05.0,03.4,0648.1,31.0
2021-03-18T15:44:00Z,00040200,00000000,-000.20,-000.18,0000.06,0000.32,-000.01,-000.06,0000.25,0000.31,0000.13,18.2,24.7,04.9,03.3,0648.2,31.0
2021-03-18T15:45:00Z,00040200,00000000,0000.20,0000.04,0000.22,-000.04,-000.12,-000.09,0000.66,0000.47,0000.27,18.2,24.8,05.0,03.3,0648.1,31.0
2021-03-18T15:46:00Z,00040200,00000000,0000.16,0000.08,0000.24,-000.01,-000.33,0000.18,0000.29,-000.18,0000.22,18.2,24.8,05.2,03.5,0648.0,31.0
2021-03-18T15:47:00Z,00040200,00000000,0000.73,0000.08,0000.23,0000.38,-000.16,0000.29,-000.66,-000.07,-000.55,18.2,24.8,05.0,03.3,0648.0,31.0
2021-03-18T15:48:00Z,00040200,00000000,0000.37,0000.47,0000.24,0000.47,-000.18,0000.02,0000.20,-000.33,0000.68,18.2,24.8,05.0,03.3,0648.1,31.0
2021-03-18T15:49:00Z,00040200,00000000,-000.41,-000.02,-000.14,0000.39,0000.03,0000.04,-000.42,-000.20,-000.76,18.2,24.8,04.9,03.3,0648.1,31.0
2021-03-18T15:50:00Z,00040200,00000000,0000.29,0000.12,0000.40,0000.34,-000.12,0000.05,0000.47,0000.41,0000.36,18.2,24.8,04.8,03.2,0648.1,31.0
2021-03-18T15:51:00Z,00040200,00000000,0000.32,0000.07,0000.57,0000.74,-000.14,0000.33,0000.18,0000.01,-000.19,18.2,24.8,04.9,03.3,0648.1,31.0
2021-03-18T15:52:00Z,00040200,00000000,0000.36,0000.10,0000.13,0000.27,0000.20,0000.18,-000.78,-000.66,-000.30,18.2,24.8,04.9,03.3,0648.1,31.0
2021-03-18T15:53:00Z,00040200,00000000,0000.44,0000.15,0000.40,-000.10,-000.15,-000.04,-000.06,0000.04,0000.17,18.2,24.8,04.6,03.0,0648.3,31.0
2021-03-18T15:54:00Z,00040200,00000000,0000.21,-000.05,0000.19,0000.34,0000.07,-000.03,0000.70,0000.33,0000.25,18.2,24.8,04.7,03.1,0648.2,31.0
2021-03-18T15:55:00Z,00040200,00000000,0000.16,-000.08,0000.08,0000.63,-000.11,0000.10,-000.67,-000.21,-000.41,18.2,24.8,04.7,03.1,0648.4,31.0
2021-03-18T15:56:00Z,00040200,00000000,-000.12,-000.01,0000.29,-000.12,-000.13,0000.35,0000.41,0000.52,0000.91,18.2,24.8,04.7,03.1,0648.3,31.0
2021-03-18T15:57:00Z,00040200,40000000,,,,,,,0001.16,0000.78,0000.49,18.2,24.9,04.5,03.0,0648.4,31.0
2021-03-18T15:58:00Z,00040200,60000000,,,,,,,-000.78,-000.30,-000.55,18.0,24.9,04.9,03.2,0647.3,31.0
2021-03-18T15:59:00Z,00040200,20000000,,,,,,,-000.25,-000.44,-000.36,18.0,25.0,04.9,03.2,0647.2,31.0
